Satellite: METEOR-M Catalog number: 35865 Epoch time: 10357.78573879 Element set: 949 Inclination: 098.7339 deg RA of node: 049.9728 deg Eccentricity: 0.0002115 Arg of perigee: 159.1896 deg Mean anomaly: 200.9323 deg Mean motion: 14.21833724 rev/day Decay rate: 1.76e-06 rev/day^2 Epoch rev: 6566 Checksum: 346
Satellite: RS-38 Catalog number: 35869 Epoch time: 10357.80658153 Element set: 961 Inclination: 098.7319 deg RA of node: 050.0339 deg Eccentricity: 0.0004560 Arg of perigee: 167.4559 deg Mean anomaly: 192.6686 deg Mean motion: 14.21996445 rev/day Decay rate: 1.77e-06 rev/day^2 Epoch rev: 6567 Checksum: 351
/EX